Regional Weather Roundup
Issued by NWS Goodland, KS

Home | Current Version | Previous Version | Text Only | Print | Product List | Glossary On
Versions: 1 2 3 4 5 6 7 8 9 10 11 12 13 14 15 16 17 18 19 20 21 22 23 24 25 26 27 28 29 30 31 32 33 34 35 36 37 38 39 40 41 42 43 44 45 46 47 48 49 50
000
ASUS43 KGLD 210708
RWRGLD

GOODLAND FORECAST AREA HOURLY WEATHER ROUNDUP
NATIONAL WEATHER SERVICE GOODLAND KS
100 AM MDT SUN SEP 21 2014

...OFFICIAL OBSERVATIONS...

CITY           SKY/WX    TMP DP  RH WIND       PRES   REMARKS
GOODLAND KS    PTCLDY    62  48  60 NE14      30.28R
HILL CITY KS   CLEAR     65  49  56 N8        30.19R
IMPERIAL NEB   CLEAR     54  45  71 CALM      30.28R
MCCOOK NEB     CLEAR     58  47  66 NW3       30.24R
AKRON CO       PTCLDY    57  44  62 E12       30.33R
BURLINGTON CO  PTCLDY    61  48  62 NE9       30.29R
LIMON CO       MOCLDY    56  46  69 CALM      30.34S
$$

...UNOFFICIAL OBSERVATIONS...

CITY           SKY/WX    TMP DP  RH WIND       PRES   REMARKS
COLBY KS       CLEAR     61  52  72 N8        30.26R
GOVE KS          N/A     65  32  29 MISG        N/A
NORTON KS      CLEAR     59  45  58 N8        30.19S
SHARON SPRINGS   N/A     61  51  70 CALM        N/A
TRIBUNE KS     CLEAR     63  55  77 N5        30.26R
WAKEENEY KS      N/A     64  48  55 MISG        N/A
TRENTON NEB      N/A     58  32  37 N6          N/A
KIT CARSON CO    N/A     60  48  64 CALM        N/A
YUMA CO          N/A     56  46  69 NE6         N/A
$$


USA.gov is the U.S. government's official web portal to all federal, state and local government web resources and services.